[[{"header":{"parameterUnit":"m.s-1","parameterCategory":1,"la1":30.2991,"la2":30.254,"lo1":-89.0895,"lo2":-89.0444,"dy":0.0017,"dx":0.0017,"nx":28,"ny":28,"refTime":"2024-06-19T03:00:00:Z","depth":0,"parameterNumber":2,"parameterNumberName":"U-component_of_WINDS"},"data":[0,0,0,0,0,0,0,0,0,0,0,0,0,0,0,0,0,0,0,0,0,0,0,0,0,0,0,0,0,0,0,0,0,0,0,0,0,0,0,0,0,0,0,0,0,0,0,0,0,0,0,0,0,0,0,0,0,0,-8.5358,-8.5358,0,-8.5322,-8.5321,-8.5321,-8.5051,-8.5044,-8.5038,-8.5032,-8.4997,-8.5003,-8.5008,0,0,0,0,0,0,0,0,0,0,0,0,0,-8.5197,-8.5202,-8.5358,-8.5358,-8.5357,-8.5322,-8.5321,-8.5321,-8.5052,-8.5044,-8.5036,-8.5029,-8.4996,-8.5002,-8.5008,0,0,0,0,0,0,0,0,0,0,0,0,0,-8.5225,-8.5203,-8.5358,-8.5219,-8.5206,-8.5322,-8.5321,-8.532,-8.5054,-8.5044,-8.5034,-8.5025,-8.4994,-8.5001,-8.5009,-8.5257,0,0,-8.5033,-8.5037,0,0,0,0,0,0,0,0,-8.5224,-8.5231,-8.524,-8.5229,-8.5214,-8.518,-8.5252,-8.5299,-8.5056,-8.5112,-8.5031,-8.502,-8.5067,-8.5068,-8.5083,-8.5255,-8.5254,-8.5034,-8.5039,-8.5042,-8.5044,0,0,0,0,0,0,0,-8.5222,-8.5231,-8.5343,-8.524,-8.5225,-8.5159,-8.5152,-8.5259,-8.5146,-8.5106,-8.5086,-8.5086,-8.5058,-8.5076,-8.508,-8.5253,-8.5034,-8.5041,-8.5046,-8.5049,-8.5625,-8.5635,0,0,0,0,0,0,-8.5239,-8.5231,-8.5345,-8.5342,-8.5195,-8.517,-8.5162,-8.5202,-8.5144,-8.5125,-8.5094,-8.5073,-8.5067,-8.5071,-8.5078,-8.5361,-8.5042,-8.505,-8.5054,-8.5614,-8.5627,-8.5638,0,0,0,0,0,0,-8.5237,-8.5252,-8.5346,-8.5282,-8.5288,-8.5183,-8.523,-8.5206,-8.5224,-8.5134,-8.5113,-8.5134,-8.506,-8.5067,-8.5214,-8.5356,-8.5053,-8.506,-8.5602,-8.5618,-8.5633,-8.5933,0,0,0,0,0,0,-8.5234,-8.5253,-8.5345,-8.5286,-8.5293,-8.5483,-8.5239,-8.5213,-8.5238,-8.521,-8.5166,-8.5149,-8.5053,-8.5203,-8.5222,-8.5362,-8.5066,-8.5588,-8.5609,-8.5628,-8.5909,-8.5957,-8.5997,0,0,0,0,0,-8.5229,-8.5432,-8.5351,-8.5366,-8.5406,-8.5491,-8.5495,-8.5379,-8.5251,-8.5342,-8.5285,-8.515,-8.5339,-8.5221,-8.5239,-8.5384,-8.5579,-8.5603,-8.5626,-8.589,-8.5947,-8.5996,0,0,0,0,0,0,-8.5512,-8.5422,-8.5331,-8.5521,-8.5516,-8.5445,-8.5558,-8.5445,-8.5476,-8.5449,-8.5305,-8.5298,-8.5466,-8.544,-8.5309,-8.5619,-8.5436,-8.5464,-8.563,-8.5684,-8.5727,-8.5728,-8.5073,0,0,0,0,0,-8.5597,-8.5673,-8.559,-8.5766,-8.5768,-8.5665,-8.5697,-8.5608,-8.5597,-8.5594,-8.5547,-8.5543,-8.56,-8.5641,-8.5689,-8.5906,-8.5891,-8.6014,-8.6059,-8.6095,-8.612,-8.623,-8.6284,-8.5716,-8.5716,-8.5716,0,0,-8.5773,-8.5733,-8.5789,-8.5822,-8.5807,-8.5889,-8.5664,-8.5761,-8.5819,-8.5609,-8.5742,-8.571,-8.5695,-8.5877,-8.5955,-8.586,-8.6274,-8.6125,-8.6155,-8.616,-8.626,-8.6314,-8.6362,-8.5733,-8.573,-8.5727,0,0,-8.6133,-8.6112,-8.6254,-8.6244,-8.6224,-8.6154,-8.6189,-8.6136,-8.6105,-8.6238,-8.6081,-8.615,-8.6253,-8.6248,-8.626,-8.662,-8.6496,-8.6641,-8.6868,-8.6978,-8.7022,-8.7061,-8.7187,-8.7234,-8.6667,-8.6668,-8.6668,0,-8.6354,-8.6469,-8.6342,-8.6448,-8.6467,-8.6279,-8.6422,-8.6419,-8.6418,-8.6435,-8.633,-8.6454,-8.6431,-8.6608,-8.6696,-8.6713,-8.6747,-8.6643,-8.7026,-8.7064,-8.7098,-8.7216,-8.7265,-8.6685,-8.6683,-8.6681,-8.668,0,-8.674,-8.6823,-8.6941,-8.6942,-8.6974,-8.7099,-8.6991,-8.704,-8.695,-8.6891,-8.7028,-8.6995,-8.7032,-8.7068,-8.6982,-8.7234,-8.7175,-8.7052,-8.6862,-8.7172,-8.728,-8.7325,-8.671,-8.6703,-8.6698,-8.6694,0,0,-8.7275,-8.7205,-8.725,-8.7247,-8.7212,-8.7274,-8.7391,-8.7426,-8.7469,-8.7476,-8.7569,-8.7661,-8.7545,-8.7558,-8.747,-8.7567,-8.7851,-8.7429,-8.7427,-8.7506,-8.8124,-8.8216,-8.827,-8.7771,-8.7779,-8.7786,-8.8124,0,-8.7619,-8.7811,-8.7701,-8.7909,-8.7984,-8.7808,-8.7909,-8.7899,-8.7849,-8.7905,-8.7849,-8.7916,-8.7759,-8.7766,-8.7854,-8.7798,-8.7973,-8.7773,-8.7855,-8.7859,-8.786,-8.8327,-8.8424,-8.8745,-8.8166,-8.8173,-8.8179,0,-8.8044,-8.8066,-8.8282,-8.8232,-8.8259,-8.8352,-8.8374,-8.8431,-8.8417,-8.8373,-8.8389,-8.8277,-8.8388,-8.8206,-8.8356,-8.8222,-8.825,-8.8229,-8.8238,-8.8238,-8.8035,-8.8337,-8.8845,-8.8892,-8.8245,-8.824,-8.8235,0,-8.8408,-8.8493,-8.8632,-8.8636,-8.8582,-8.8651,-8.8632,-8.8607,-8.8636,-8.8657,-8.8673,-8.8709,-8.8728,-8.8758,-8.8659,-8.8536,-8.8823,-8.8632,-8.8788,-8.8791,-8.8853,-8.885,-8.937,-8.8879,-8.8878,-8.8877,-8.8876,0,-8.8801,-8.8939,-8.8794,-8.888,-8.903,-8.8903,-8.9055,-8.9017,-8.8998,-8.9073,-8.8925,-8.8999,-8.8865,-8.8927,-8.8851,-8.8986,-8.8997,-8.8964,-8.8941,-8.8975,-8.8979,-8.8988,-8.8962,-8.889,-8.8887,-8.8885,-8.8883,0,-8.9231,-8.914,-8.928,-8.9217,-8.9205,-8.9318,-8.9264,-8.9341,-8.9281,-8.9378,-8.9394,-8.93,-8.9364,-8.9269,-8.9324,-8.9273,-8.9458,-8.9404,-8.9463,-8.9445,-8.9605,-8.959,-9.0146,-9.0211,-8.9683,-8.9689,-8.9693,0,-8.9485,-8.9587,-8.9535,-8.9574,-8.9563,-8.9629,-8.9656,-8.9536,-8.9571,-8.9563,-8.9641,-8.9693,-8.9726,-8.9838,-8.9775,-8.9817,-8.9759,-8.9952,-8.9764,-8.9795,-8.9758,-8.9752,-8.976,-8.9989,-8.9995,-9.0,-9.0005,0,-8.9945,-8.9895,-8.9939,-8.9969,-9.0006,-9.0024,-9.0031,-9.0072,-8.9946,-8.9993,-9.0056,-9.0083,-9.0138,-9.0191,-9.0216,-9.0197,-9.0081,-9.0065,-9.0102,-9.0135,-9.0164,-9.0147,-8.9563,-9.0051,-9.0047,-9.0043,-9.0041,-9.0039,-9.0292,-9.0373,-9.0349,-9.0403,-9.0396,-9.0406,-9.0474,-9.0423,-9.0473,-9.0507,-9.0434,-9.0515,-9.0499,-9.052,-9.0514,-9.0576,-9.0492,-9.0548,-9.0561,-9.0576,-9.0599,-9.0158,-9.0581,-9.058,-9.0578,-9.0577,-9.0576,0,-9.074,-9.0716,-9.0768,-9.0781,-9.0825,-9.0712,-9.0714,-9.0758,-9.083,-9.0824,-9.0861,-9.0933,-9.0984,-9.0927,-9.0967,-9.1028,-9.0975,-9.1042,-9.1034,-9.1032,-9.0674,-9.0635,-9.1084,-9.1084,-9.1084,-9.1084,-9.1083,-9.1083,-9.0978,-9.1109,-9.1057,-9.1183,-9.1158,-9.1235,-9.1245,-9.1254,-9.1248,-9.1335,-9.1376,-9.1338,-9.1311,-9.1349,-9.1391,-9.1372,-9.1393,-9.1478,-9.1441,-9.1107,-9.1057,-9.1009,-9.0972,-9.1484,-9.1485,-9.1793,-9.1796,-9.1798]},{"header":{"parameterUnit":"m.s-1","parameterCategory":1,"la1":30.2991,"la2":30.254,"lo1":-89.0895,"lo2":-89.0444,"dy":0.0017,"dx":0.0017,"nx":28,"ny":28,"refTime":"2024-06-19T03:00:00:Z","depth":0,"parameterNumber":3,"parameterNumberName":"V-component_of_WINDS"},"data":[0,0,0,0,0,0,0,0,0,0,0,0,0,0,0,0,0,0,0,0,0,0,0,0,0,0,0,0,0,0,0,0,0,0,0,0,0,0,0,0,0,0,0,0,0,0,0,0,0,0,0,0,0,0,0,0,0,0,0.037,0.037,0,0.0349,0.0349,0.0349,0.0315,0.0315,0.0314,0.0314,0.0291,0.0291,0.0291,0,0,0,0,0,0,0,0,0,0,0,0,0,0.0383,0.0383,0.037,0.037,0.037,0.0349,0.0349,0.0349,0.0315,0.0315,0.0314,0.0313,0.0291,0.0291,0.0291,0,0,0,0,0,0,0,0,0,0,0,0,0,0.0371,0.0383,0.037,0.0351,0.0349,0.0349,0.0349,0.0348,0.0316,0.0315,0.0314,0.0313,0.0291,0.0291,0.0291,0.0309,0,0,0.0291,0.0291,0,0,0,0,0,0,0,0,0.0372,0.0371,0.0354,0.0352,0.035,0.0334,0.0345,0.0335,0.0316,0.0328,0.0314,0.0312,0.0306,0.0305,0.0303,0.0308,0.0307,0.0291,0.0291,0.0291,0.0291,0,0,0,0,0,0,0,0.0373,0.0371,0.0362,0.0354,0.0351,0.0343,0.0341,0.0343,0.0322,0.0327,0.0325,0.0323,0.0305,0.0303,0.0302,0.0307,0.0291,0.0291,0.0291,0.0291,0.0328,0.0329,0,0,0,0,0,0,0.0376,0.0372,0.0362,0.0361,0.0359,0.0344,0.0341,0.034,0.0322,0.0319,0.0323,0.0321,0.0304,0.0302,0.0301,0.0322,0.0291,0.0291,0.0291,0.0327,0.0328,0.0329,0,0,0,0,0,0,0.0377,0.0376,0.0363,0.0366,0.0364,0.0345,0.0344,0.034,0.0338,0.032,0.0316,0.0325,0.0303,0.0301,0.0308,0.0321,0.0291,0.0291,0.0326,0.0327,0.0329,0.0364,0,0,0,0,0,0,0.0377,0.0376,0.0382,0.0367,0.0364,0.037,0.0345,0.034,0.0338,0.0335,0.032,0.0317,0.0302,0.0308,0.0308,0.032,0.0291,0.0324,0.0326,0.0328,0.0362,0.0366,0.0371,0,0,0,0,0,0.0378,0.0392,0.0383,0.0382,0.0371,0.0371,0.0369,0.0352,0.0339,0.0346,0.0334,0.0317,0.032,0.0309,0.0309,0.0321,0.0323,0.0326,0.0328,0.0359,0.0366,0.0371,0,0,0,0,0,0,0.0409,0.039,0.0379,0.0389,0.0382,0.0365,0.0373,0.0359,0.0355,0.0352,0.0331,0.0328,0.0338,0.033,0.0319,0.0339,0.0319,0.0321,0.0343,0.0349,0.0353,0.0355,0.0291,0,0,0,0,0,0.0418,0.0419,0.0402,0.0412,0.041,0.0392,0.0391,0.0379,0.037,0.0367,0.0356,0.0349,0.0348,0.0348,0.0346,0.036,0.0358,0.0369,0.0374,0.0378,0.038,0.0389,0.0394,0.0337,0.0337,0.0336,0,0,0.0434,0.0424,0.0426,0.0419,0.0412,0.0414,0.039,0.0393,0.0395,0.0368,0.0374,0.0366,0.0356,0.0367,0.0372,0.0361,0.0395,0.038,0.0384,0.0384,0.0391,0.0397,0.0402,0.0338,0.0338,0.0338,0,0,0.0467,0.0458,0.0467,0.0461,0.0452,0.044,0.0442,0.0428,0.0422,0.0428,0.0409,0.0411,0.0409,0.0404,0.0401,0.0434,0.0419,0.0434,0.0458,0.0467,0.0471,0.0475,0.0488,0.0493,0.0436,0.0436,0.0436,0,0.0489,0.0491,0.0473,0.0478,0.0476,0.0453,0.0462,0.0457,0.0448,0.0447,0.0436,0.0435,0.0427,0.0438,0.0446,0.0444,0.0447,0.0435,0.0472,0.0476,0.0479,0.0492,0.0496,0.0438,0.0438,0.0438,0.0438,0,0.052,0.0522,0.0531,0.0523,0.0522,0.0529,0.0512,0.0514,0.0502,0.0492,0.0499,0.0489,0.0486,0.0487,0.0475,0.0496,0.0491,0.0476,0.0456,0.0487,0.0498,0.0503,0.0441,0.044,0.044,0.0439,0,0,0.057,0.0554,0.0557,0.0554,0.0543,0.0545,0.0551,0.0549,0.0551,0.0545,0.0551,0.0552,0.0539,0.0536,0.0523,0.0531,0.056,0.0516,0.0515,0.0525,0.0585,0.0596,0.0602,0.055,0.0551,0.0551,0.0586,0,0.0601,0.0611,0.0596,0.061,0.0613,0.0592,0.0599,0.0593,0.0584,0.0586,0.0576,0.0577,0.056,0.0558,0.0565,0.0555,0.0572,0.0552,0.0556,0.0556,0.0559,0.0607,0.0619,0.0652,0.059,0.0591,0.0591,0,0.0637,0.0635,0.065,0.0639,0.064,0.0646,0.0643,0.0645,0.0638,0.0632,0.063,0.0615,0.0622,0.0603,0.0613,0.06,0.0601,0.0596,0.0597,0.0597,0.0576,0.0609,0.0662,0.0667,0.0598,0.0597,0.0597,0,0.0674,0.0674,0.0684,0.0682,0.067,0.0675,0.067,0.0662,0.0663,0.066,0.0661,0.0659,0.0658,0.0658,0.0644,0.0631,0.0656,0.0635,0.0651,0.0652,0.0658,0.0658,0.0712,0.0657,0.0657,0.0657,0.0657,0,0.071,0.072,0.0701,0.0706,0.0718,0.0701,0.0713,0.0706,0.07,0.0705,0.0686,0.0691,0.0672,0.0675,0.0664,0.0675,0.0674,0.067,0.0667,0.0672,0.0673,0.0672,0.067,0.0658,0.0658,0.0658,0.0658,0,0.0753,0.074,0.0749,0.0738,0.0735,0.0744,0.0734,0.074,0.0731,0.0737,0.0738,0.0723,0.0726,0.0713,0.0713,0.0705,0.0722,0.0715,0.0725,0.0723,0.074,0.0739,0.0797,0.0804,0.0744,0.0744,0.0745,0,0.0777,0.0784,0.0774,0.0776,0.0773,0.0776,0.0777,0.0761,0.0762,0.0757,0.0763,0.0765,0.0765,0.0771,0.0761,0.0762,0.0755,0.0775,0.0755,0.076,0.0757,0.0757,0.0758,0.0779,0.078,0.0781,0.0781,0,0.0821,0.0815,0.0816,0.0816,0.0818,0.0817,0.0814,0.0817,0.08,0.0803,0.0806,0.0807,0.0808,0.081,0.0809,0.0805,0.0791,0.0788,0.0792,0.0797,0.0803,0.0801,0.0737,0.0787,0.0786,0.0786,0.0785,0.0785,0.0856,0.0863,0.0857,0.086,0.0857,0.0856,0.0861,0.0853,0.0856,0.0856,0.0846,0.0852,0.0847,0.0844,0.0842,0.0846,0.0837,0.0842,0.0844,0.0845,0.0849,0.0802,0.0846,0.0846,0.0845,0.0845,0.0845,0,0.09,0.0896,0.0899,0.0897,0.09,0.0887,0.0885,0.0888,0.0893,0.089,0.0891,0.0896,0.0899,0.089,0.0891,0.0897,0.0891,0.0898,0.0898,0.0897,0.0857,0.0854,0.0903,0.0903,0.0903,0.0903,0.0903,0.0903,0.0924,0.0935,0.0929,0.0939,0.0934,0.094,0.094,0.094,0.0937,0.0943,0.0946,0.094,0.0935,0.0936,0.0939,0.0936,0.0938,0.0948,0.0943,0.0905,0.09,0.0894,0.0891,0.0948,0.0948,0.0983,0.0983,0.0984]}]]